Flag for U.S.A. Weather past 2 weeks in Duluth, Minnesota, U.S.A.

Now
63 °F

Sunny.


Feels Like: 63 °F
Forecast: 58 / 81 °F
Wind: 13 mph from Northeast

Location: Sky Harbor Airport

Current Time: Jul 4, 2015 at 8:08:01 PM

Latest Report: Jul 4, 2015 at 7:34 PM


Visibility: 10 mi

Pressure: 29.91 "Hg

Humidity: 88%

Dew point: 59 °F

Location of DuluthLocation

Historic Weather in Duluth — Graph

°F

Duluth temperature yesterday

Maximum temperature yesterday: 82 °F (at 2:53 PM)
Minimum temperature yesterday: 61 °F (at 6:14 AM)
Average temperature yesterday: 72 °F

Past Weeks' High & Low Weather Summary

 TemperatureHumidityPressure
High84 °F (Jun 27, 3:54 PM)100% (Jun 21, 2:14 AM)30.16 "Hg (Jun 21, 2:14 AM)
Low34 °F (Jun 26, 9:33 AM)33% (Jun 27, 3:54 PM)29.60 "Hg (Jun 22, 3:34 PM)
Average64 °F81%29.93 "Hg
* Reported Jun 19 6:14 PM — Jul 4 6:54 PM, Duluth, Weather by CustomWeather, © 2015

Note: Actual official high and low records may vary slightly from our data, if they occured in-between our weather recording intervals... More about our weather records

Advertising

Duluth weather history for previous 24 hours

 ConditionsComfort  
Time TempWeatherWind HumidityBarometerVisibility
6:54 PM
Sat, Jul 4
64 °FSunny.12 mph83%29.92 "Hg10 mi
6:33 PM64 °FSunny.9 mph83%29.92 "Hg10 mi
6:14 PM64 °FSunny.9 mph88%29.92 "Hg10 mi
5:54 PM66 °FSunny.9 mph83%29.93 "Hg10 mi
5:34 PM66 °FSunny.10 mph83%29.93 "Hg10 mi
5:14 PM66 °FSunny.9 mph83%29.94 "Hg10 mi
4:54 PM66 °FSunny.8 mph83%29.94 "Hg10 mi
4:34 PM66 °FSunny.10 mph83%29.94 "Hg10 mi
4:14 PM66 °FSunny.9 mph83%29.95 "Hg10 mi
3:54 PM66 °FSunny.10 mph83%29.95 "Hg10 mi
3:34 PM66 °FSunny.12 mph83%29.96 "Hg10 mi
3:14 PM66 °FSunny.13 mph83%29.96 "Hg10 mi
2:54 PM68 °FSunny.12 mph78%29.96 "Hg10 mi
2:34 PM66 °FSunny.12 mph83%29.96 "Hg10 mi
2:14 PM66 °FSunny.10 mph83%29.97 "Hg10 mi
1:54 PM66 °FSunny.9 mph83%29.97 "Hg10 mi
1:34 PM66 °FSunny.8 mph83%29.97 "Hg10 mi
1:14 PM66 °FSunny.8 mph83%29.97 "Hg10 mi
12:54 PM66 °FSunny.9 mph83%29.97 "Hg10 mi
12:34 PM66 °FSunny.9 mph83%29.97 "Hg10 mi
12:14 PM66 °FSunny.9 mph83%29.97 "Hg10 mi
11:53 AM66 °FSunny.8 mph83%29.97 "Hg10 mi
11:34 AM66 °FSunny.9 mph83%29.98 "Hg10 mi
11:14 AM64 °FSunny.8 mph88%29.98 "Hg10 mi
10:54 AM64 °FSunny.8 mph83%29.98 "Hg10 mi
10:34 AM64 °FSunny.8 mph88%29.98 "Hg10 mi
10:14 AM64 °FSunny.8 mph83%29.98 "Hg10 mi
9:54 AM64 °FSunny.7 mph83%29.97 "Hg10 mi
9:34 AM64 °FSunny.8 mph83%29.98 "Hg10 mi
9:14 AM63 °FSunny.8 mph88%29.98 "Hg10 mi
8:54 AM63 °FSunny.9 mph88%29.98 "Hg10 mi
8:34 AM63 °FSunny.9 mph88%29.98 "Hg10 mi
8:14 AM63 °FSunny.9 mph88%29.98 "Hg10 mi
7:54 AM63 °FSunny.9 mph88%29.98 "Hg10 mi
7:34 AM63 °FSunny.9 mph88%29.98 "Hg10 mi
7:14 AM63 °FSunny.9 mph88%29.98 "Hg10 mi
6:54 AM63 °FSunny.8 mph88%29.97 "Hg10 mi
6:34 AM63 °FSunny.9 mph88%29.97 "Hg10 mi
6:14 AM63 °FClear.9 mph83%29.96 "Hg10 mi
5:54 AM63 °FClear.10 mph83%29.96 "Hg10 mi
5:34 AM63 °FClear.10 mph83%29.95 "Hg10 mi
5:14 AM63 °FClear.9 mph83%29.95 "Hg10 mi
4:54 AM63 °FClear.8 mph83%29.95 "Hg10 mi
4:34 AM63 °FClear.7 mph83%29.95 "Hg10 mi
4:14 AM63 °FClear.5 mph83%29.94 "Hg10 mi
3:54 AM64 °FClear.6 mph83%29.94 "Hg10 mi
3:34 AM64 °FClear.6 mph83%29.94 "Hg10 mi
3:14 AM64 °FClear.7 mph88%29.93 "Hg10 mi
2:54 AM64 °FClear.5 mph88%29.93 "Hg10 mi
2:34 AM64 °FClear.No wind88%29.92 "Hg10 mi
2:14 AM64 °FClear.5 mph88%29.92 "Hg10 mi
1:54 AM64 °FClear.5 mph88%29.92 "Hg10 mi
1:33 AM64 °FClear.No wind88%29.92 "Hg10 mi
1:14 AM66 °FClear.3 mph83%29.92 "Hg10 mi
12:54 AM66 °FClear.6 mph83%29.92 "Hg10 mi
12:34 AM66 °FClear.3 mph83%29.91 "Hg10 mi
12:14 AM66 °FClear.3 mph83%29.91 "Hg10 mi
11:54 PM
Fri, Jul 3
66 °FClear.5 mph83%29.90 "Hg10 mi
11:34 PM68 °FClear.7 mph78%29.89 "Hg10 mi
11:14 PM72 °FClear.6 mph65%29.89 "Hg10 mi
10:34 PM73 °FClear.3 mph61%29.88 "Hg10 mi
10:14 PM73 °FClear.5 mph61%29.88 "Hg10 mi
9:54 PM73 °FSunny.3 mph61%29.88 "Hg10 mi
9:34 PM75 °FSunny.6 mph61%29.87 "Hg10 mi
9:13 PM75 °FSunny.5 mph61%29.86 "Hg7 mi
8:54 PM75 °FSunny.5 mph61%29.86 "Hg7 mi
8:34 PM75 °FSunny.5 mph61%29.86 "Hg7 mi
8:14 PM72 °FSunny.5 mph73%29.86 "Hg7 mi
Weather by CustomWeather, © 2015

See weather overviewHow to use our weather pages